QPF
0.08 0.11 0.10 0.10 0.09 0.06 0.05 0.05 0.06 0.06 0.04 0.03 0.04 0.05 0.05 0.04 0.02 0.02 0.03 0.02 0.01 0.01 0.00 0.00 0.00 0.00 0.00 0.00 0.00 0.00 0.00 0.00 0.00 0.00 0.00 0.00 0.00 0.00 0.00 0.00 0.00 0.00 0.00 0.00
0.07 0.09 0.06 0.05 0.06 0.05 0.04 0.04 0.04 0.05 0.03 0.02 0.03 0.03 0.05 0.04 0.03 0.02 0.02 0.02 0.01 0.01 0.00 0.00 0.00 0.00 0.00 0.00 0.00 0.00 0.00 0.00 0.00 0.00 0.00 0.00 0.00 0.00 0.00 0.00 0.00 0.00 0.00 0.00
0.05 0.05 0.03 0.03 0.04 0.05 0.03 0.03 0.03 0.02 0.02 0.02 0.02 0.03 0.04 0.04 0.04 0.02 0.01 0.02 0.00 0.00 0.00 0.00 0.00 0.00 0.00 0.00 0.00 0.00 0.00 0.00 0.00 0.00 0.00 0.00 0.00 0.00 0.00 0.00 0.00 0.00 0.00 0.00
0.05 0.03 0.02 0.02 0.03 0.02 0.02 0.02 0.01 0.01 0.02 0.02 0.02 0.03 0.03 0.02 0.03 0.02 0.02 0.02 0.00 0.00 0.00 0.00 0.00 0.00 0.00 0.00 0.00 0.00 0.00 0.00 0.00 0.00 0.00 0.00 0.00 0.00 0.00 0.00 0.00 0.00 0.00 0.00
0.05 0.03 0.02 0.01 0.01 0.01 0.01 0.01 0.01 0.01 0.01 0.01 0.01 0.01 0.02 0.02 0.02 0.01 0.01 0.01 0.00 0.00 0.00 0.00 0.00 0.00 0.00 0.00 0.00 0.00 0.00 0.00 0.00 0.00 0.00 0.00 0.00 0.00 0.00 0.00 0.00 0.00 0.00 0.00
0.04 0.03 0.02 0.01 0.01 0.01 0.01 0.01 0.01 0.01 0.01 0.01 0.00 0.00 0.01 0.01 0.01 0.01 0.01 0.01 0.00 0.00 0.00 0.00 0.00 0.00 0.00 0.00 0.00 0.00 0.00 0.00 0.00 0.00 0.00 0.00 0.00 0.00 0.00 0.00 0.00 0.00 0.00 0.00
0.03 0.02 0.01 0.01 0.02 0.02 0.01 0.02 0.02 0.03 0.02 0.01 0.00 0.00 0.00 0.00 0.00 0.00 0.00 0.01 0.00 0.00 0.00 0.00 0.00 0.00 0.00 0.00 0.00 0.00 0.00 0.00 0.00 0.00 0.00 0.00 0.00 0.00 0.00 0.00 0.00 0.00 0.00 0.00
0.03 0.02 0.01 0.01 0.01 0.01 0.01 0.01 0.02 0.02 0.02 0.01 0.00 0.00 0.00 0.00 0.00 0.00 0.00 0.00 0.00 0.00 0.00 0.00 0.00 0.00 0.00 0.00 0.00 0.00 0.00 0.00 0.00 0.00 0.00 0.00 0.00 0.00 0.00 0.00 0.00 0.00 0.00 0.00
0.02 0.02 0.01 0.01 0.00 0.01 0.01 0.01 0.01 0.01 0.01 0.00 0.00 0.00 0.00 0.00 0.00 0.00 0.00 0.00 0.00 0.00 0.00 0.00 0.00 0.00 0.00 0.00 0.00 0.00 0.00 0.00 0.00 0.00 0.00 0.00 0.00 0.00 0.00 0.00 0.00 0.00 0.00 0.00
0.01 0.02 0.01 0.01 0.01 0.01 0.01 0.01 0.00 0.01 0.01 0.01 0.00 0.00 0.00 0.00 0.00 0.00 0.00 0.00 0.00 0.00 0.00 0.00 0.00 0.00 0.00 0.00 0.00 0.00 0.00 0.00 0.00 0.00 0.00 0.00 0.00 0.00 0.00 0.00 0.00 0.00 0.00 0.00
0.01 0.01 0.02 0.01 0.00 0.01 0.00 0.00 0.00 0.00 0.00 0.00 0.00 0.00 0.00 0.00 0.00 0.00 0.00 0.00 0.00 0.00 0.00 0.00 0.00 0.00 0.00 0.00 0.00 0.00 0.00 0.00 0.00 0.00 0.00 0.00 0.00 0.00 0.00 0.00 0.00 0.00 0.00 0.00
0.00 0.01 0.02 0.01 0.00 0.00 0.00 0.00 0.00 0.00 0.00 0.00 0.00 0.00 0.00 0.00 0.00 0.00 0.00 0.00 0.00 0.00 0.00 0.00 0.00 0.00 0.00 0.00 0.00 0.00 0.00 0.00 0.00 0.00 0.00 0.00 0.00 0.00 0.00 0.00 0.00 0.00 0.00 0.00
0.01 0.01 0.01 0.01 0.00 0.00 0.00 0.00 0.00 0.00 0.00 0.00 0.00 0.00 0.00 0.00 0.00 0.00 0.00 0.00 0.00 0.00 0.00 0.00 0.00 0.00 0.00 0.00 0.00 0.00 0.00 0.00 0.00 0.00 0.00 0.00 0.00 0.00 0.00 0.00 0.00 0.00 0.00 0.00
0.01 0.00 0.01 0.01 0.00 0.00 0.00 0.00 0.00 0.00 0.00 0.00 0.00 0.00 0.00 0.00 0.00 0.00 0.00 0.00 0.00 0.00 0.00 0.00 0.00 0.00 0.00 0.00 0.00 0.00 0.00 0.00 0.00 0.00 0.00 0.00 0.00 0.00 0.00 0.00 0.00 0.00 0.00 0.00
0.01 0.00 0.00 0.00 0.00 0.00 0.00 0.00 0.00 0.00 0.00 0.00 0.00 0.00 0.00 0.00 0.00 0.00 0.00 0.00 0.00 0.00 0.00 0.00 0.00 0.00 0.00 0.00 0.00 0.00 0.00 0.00 0.00 0.00 0.00 0.00 0.00 0.00 0.00 0.00 0.00 0.00 0.00 0.00
0.00 0.00 0.00 0.00 0.00 0.00 0.00 0.00 0.00 0.00 0.00 0.00 0.00 0.00 0.00 0.00 0.00 0.00 0.00 0.00 0.00 0.00 0.00 0.00 0.00 0.00 0.00 0.00 0.00 0.00 0.00 0.00 0.00 0.00 0.00 0.00 0.00 0.00 0.00 0.00 0.00 0.00 0.00 0.00
0.00 0.00 0.00 0.00 0.00 0.00 0.00 0.00 0.00 0.00 0.00 0.00 0.00 0.00 0.00 0.00 0.00 0.00 0.00 0.00 0.00 0.00 0.00 0.00 0.00 0.00 0.00 0.00 0.00 0.00 0.00 0.00 0.00 0.00 0.00 0.00 0.00 0.00 0.00 0.00 0.00 0.00 0.00 0.00
0.00 0.00 0.00 0.00 0.00 0.00 0.00 0.00 0.00 0.00 0.00 0.00 0.00 0.00 0.00 0.00 0.00 0.00 0.00 0.00 0.00 0.00 0.00 0.00 0.00 0.00 0.00 0.00 0.00 0.00 0.00 0.00 0.00 0.00 0.00 0.00 0.00 0.00 0.00 0.00 0.00 0.00 0.00 0.00
0.00 0.00 0.00 0.00 0.00 0.00 0.00 0.00 0.00 0.00 0.00 0.00 0.00 0.00 0.00 0.00 0.01 0.01 0.00 0.00 0.00 0.00 0.00 0.00 0.00 0.00 0.00 0.00 0.00 0.00 0.00 0.00 0.00 0.00 0.00 0.00 0.00 0.00 0.00 0.00 0.00 0.00 0.00 0.00
0.00 0.00 0.00 0.00 0.00 0.00 0.00 0.00 0.00 0.00 0.00 0.00 0.00 0.00 0.00 0.00 0.00 0.01 0.00 0.00 0.00 0.00 0.00 0.00 0.00 0.00 0.00 0.00 0.00 0.00 0.00 0.00 0.00 0.00 0.00 0.00 0.00 0.00 0.00 0.00 0.00 0.00 0.00 0.00
0.00 0.00 0.00 0.00 0.00 0.00 0.00 0.00 0.00 0.00 0.00 0.00 0.00 0.00 0.00 0.00 0.00 0.00 0.00 0.00 0.00 0.00 0.00 0.00 0.00 0.00 0.00 0.00 0.00 0.00 0.00 0.00 0.00 0.00 0.00 0.00 0.00 0.00 0.00 0.00 0.00 0.00 0.00 0.00
0.00 0.00 0.00 0.00 0.00 0.00 0.00 0.00 0.00 0.00 0.00 0.00 0.00 0.00 0.00 0.00 0.00 0.00 0.00 0.00 0.00 0.00 0.00 0.00 0.00 0.00 0.00 0.00 0.00 0.00 0.00 0.00 0.00 0.00 0.00 0.00 0.00 0.00 0.00 0.00 0.00 0.00 0.00 0.00
0.00 0.00 0.00 0.00 0.00 0.00 0.00 0.00 0.00 0.00 0.00 0.00 0.00 0.00 0.00 0.00 0.00 0.00 0.00 0.00 0.00 0.00 0.00 0.00 0.00 0.00 0.00 0.00 0.00 0.00 0.00 0.00 0.00 0.00 0.00 0.00 0.00 0.00 0.00 0.00 0.00 0.00 0.00 0.00
0.00 0.00 0.00 0.00 0.00 0.00 0.00 0.00 0.00 0.00 0.00 0.00 0.00 0.00 0.00 0.00 0.00 0.00 0.00 0.00 0.00 0.00 0.00 0.00 0.00 0.00 0.00 0.00 0.00 0.00 0.00 0.00 0.00 0.00 0.00 0.00 0.00 0.00 0.00 0.00 0.00 0.00 0.00 0.00
0.00 0.00 0.00 0.00 0.00 0.00 0.00 0.00 0.00 0.00 0.00 0.00 0.00 0.00 0.00 0.00 0.00 0.00 0.00 0.00 0.00 0.00 0.00 0.00 0.00 0.00 0.00 0.00 0.00 0.00 0.00 0.00 0.00 0.00 0.00 0.00 0.00 0.00 0.00 0.00 0.00 0.00 0.00 0.00
0.00 0.00 0.00 0.00 0.00 0.00 0.00 0.00 0.00 0.00 0.00 0.00 0.00 0.00 0.00 0.00 0.00 0.00 0.00 0.00 0.00 0.00 0.00 0.00 0.00 0.00 0.00 0.00 0.00 0.00 0.00 0.00 0.00 0.00 0.00 0.00 0.00 0.00 0.00 0.00 0.00 0.00 0.00 0.00
MSLP
1017.70 1018.58 1019.31 1019.82 1020.10 1020.17 1020.07 1019.87 1019.61 1019.37 1019.19 1019.07 1019.02 1019.02 1019.04 1019.07 1019.07 1019.04 1018.97 1018.86 1018.72 1018.56 1018.40 1018.23 1018.07 1017.93 1017.81 1017.73 1017.70 1017.74 1017.83 1017.98 1018.18 1018.39 1018.61 1018.79 1018.93 1019.00 1019.00 1018.95 1018.86 1018.74 1018.61 1018.48
1018.24 1019.09 1019.75 1020.18 1020.38 1020.38 1020.23 1019.99 1019.73 1019.50 1019.33 1019.23 1019.19 1019.18 1019.19 1019.19 1019.16 1019.11 1019.03 1018.94 1018.83 1018.72 1018.60 1018.48 1018.35 1018.22 1018.09 1017.98 1017.91 1017.88 1017.92 1018.03 1018.20 1018.42 1018.65 1018.88 1019.06 1019.19 1019.25 1019.24 1019.18 1019.08 1018.97 1018.85
1018.39 1019.16 1019.74 1020.10 1020.24 1020.21 1020.06 1019.85 1019.64 1019.46 1019.34 1019.27 1019.23 1019.21 1019.19 1019.14 1019.07 1018.99 1018.91 1018.83 1018.77 1018.73 1018.70 1018.66 1018.60 1018.51 1018.40 1018.28 1018.17 1018.09 1018.08 1018.15 1018.30 1018.51 1018.77 1019.04 1019.29 1019.48 1019.60 1019.64 1019.62 1019.55 1019.45 1019.33
1018.15 1018.82 1019.30 1019.61 1019.73 1019.73 1019.64 1019.51 1019.40 1019.30 1019.25 1019.21 1019.17 1019.11 1019.02 1018.90 1018.77 1018.64 1018.55 1018.51 1018.52 1018.57 1018.65 1018.73 1018.77 1018.77 1018.70 1018.60 1018.48 1018.37 1018.32 1018.36 1018.49 1018.71 1018.99 1019.31 1019.61 1019.87 1020.06 1020.16 1020.18 1020.13 1020.04 1019.92
1017.63 1018.16 1018.56 1018.83 1018.98 1019.04 1019.06 1019.06 1019.07 1019.08 1019.09 1019.07 1019.00 1018.88 1018.70 1018.48 1018.27 1018.09 1017.98 1017.97 1018.07 1018.24 1018.46 1018.68 1018.86 1018.96 1018.98 1018.92 1018.81 1018.70 1018.63 1018.65 1018.77 1019.00 1019.31 1019.66 1020.02 1020.34 1020.59 1020.73 1020.79 1020.76 1020.67 1020.53
1016.94 1017.34 1017.67 1017.92 1018.12 1018.29 1018.44 1018.58 1018.72 1018.84 1018.90 1018.89 1018.77 1018.56 1018.27 1017.94 1017.62 1017.39 1017.27 1017.30 1017.48 1017.79 1018.16 1018.55 1018.88 1019.11 1019.23 1019.24 1019.17 1019.07 1019.00 1019.01 1019.13 1019.36 1019.69 1020.08 1020.48 1020.84 1021.12 1021.30 1021.38 1021.36 1021.26 1021.12
1016.25 1016.53 1016.79 1017.05 1017.31 1017.58 1017.87 1018.16 1018.42 1018.62 1018.72 1018.68 1018.50 1018.19 1017.77 1017.32 1016.92 1016.62 1016.50 1016.58 1016.86 1017.29 1017.82 1018.37 1018.86 1019.23 1019.46 1019.54 1019.52 1019.45 1019.39 1019.40 1019.52 1019.75 1020.09 1020.50 1020.92 1021.30 1021.60 1021.80 1021.87 1021.85 1021.75 1021.59
1015.66 1015.85 1016.07 1016.34 1016.66 1017.03 1017.43 1017.83 1018.18 1018.43 1018.54 1018.46 1018.21 1017.78 1017.26 1016.70 1016.22 1015.89 1015.77 1015.90 1016.27 1016.83 1017.51 1018.20 1018.83 1019.33 1019.66 1019.82 1019.86 1019.82 1019.78 1019.80 1019.91 1020.15 1020.49 1020.89 1021.30 1021.68 1021.98 1022.16 1022.23 1022.19 1022.08 1021.92
1015.25 1015.37 1015.56 1015.84 1016.21 1016.65 1017.12 1017.59 1017.99 1018.26 1018.35 1018.22 1017.89 1017.38 1016.76 1016.13 1015.60 1015.26 1015.16 1015.35 1015.80 1016.46 1017.26 1018.07 1018.81 1019.41 1019.83 1020.06 1020.15 1020.15 1020.14 1020.16 1020.28 1020.51 1020.83 1021.21 1021.61 1021.96 1022.23 1022.39 1022.43 1022.38 1022.26 1022.11
1015.01 1015.09 1015.27 1015.56 1015.95 1016.42 1016.93 1017.41 1017.81 1018.06 1018.11 1017.93 1017.53 1016.95 1016.28 1015.62 1015.08 1014.74 1014.68 1014.92 1015.45 1016.19 1017.06 1017.95 1018.77 1019.44 1019.92 1020.22 1020.36 1020.41 1020.42 1020.47 1020.60 1020.82 1021.12 1021.47 1021.83 1022.14 1022.37 1022.49 1022.51 1022.45 1022.33 1022.19
1014.90 1014.98 1015.16 1015.45 1015.83 1016.29 1016.77 1017.23 1017.58 1017.78 1017.77 1017.53 1017.08 1016.48 1015.79 1015.14 1014.62 1014.32 1014.30 1014.59 1015.16 1015.94 1016.85 1017.78 1018.64 1019.36 1019.89 1020.24 1020.44 1020.54 1020.60 1020.68 1020.83 1021.05 1021.34 1021.66 1021.97 1022.24 1022.43 1022.52 1022.52 1022.45 1022.34 1022.23
1014.86 1014.96 1015.14 1015.42 1015.77 1016.18 1016.60 1016.97 1017.25 1017.36 1017.28 1016.99 1016.52 1015.91 1015.24 1014.62 1014.15 1013.90 1013.93 1014.25 1014.84 1015.63 1016.55 1017.48 1018.35 1019.09 1019.66 1020.07 1020.33 1020.50 1020.63 1020.77 1020.95 1021.19 1021.48 1021.78 1022.06 1022.30 1022.45 1022.52 1022.51 1022.45 1022.36 1022.28
1014.83 1014.96 1015.16 1015.40 1015.70 1016.03 1016.34 1016.61 1016.77 1016.78 1016.62 1016.29 1015.79 1015.20 1014.57 1014.01 1013.60 1013.40 1013.47 1013.80 1014.39 1015.16 1016.05 1016.96 1017.83 1018.58 1019.18 1019.65 1019.99 1020.25 1020.47 1020.69 1020.94 1021.22 1021.52 1021.83 1022.10 1022.31 1022.45 1022.52 1022.52 1022.48 1022.42 1022.37
1014.78 1014.96 1015.15 1015.37 1015.59 1015.81 1016.00 1016.13 1016.15 1016.05 1015.81 1015.42 1014.92 1014.34 1013.76 1013.26 1012.91 1012.76 1012.84 1013.18 1013.74 1014.47 1015.31 1016.19 1017.03 1017.79 1018.44 1018.98 1019.41 1019.78 1020.11 1020.44 1020.77 1021.11 1021.45 1021.77 1022.05 1022.27 1022.42 1022.50 1022.53 1022.52 1022.50 1022.49
1014.72 1014.93 1015.12 1015.29 1015.43 1015.53 1015.58 1015.55 1015.43 1015.21 1014.87 1014.43 1013.91 1013.36 1012.83 1012.38 1012.07 1011.95 1012.05 1012.36 1012.88 1013.56 1014.34 1015.17 1015.99 1016.76 1017.45 1018.07 1018.61 1019.10 1019.55 1019.99 1020.42 1020.83 1021.23 1021.59 1021.90 1022.14 1022.32 1022.44 1022.50 1022.54 1022.57 1022.60
1014.66 1014.89 1015.07 1015.18 1015.22 1015.20 1015.10 1014.92 1014.66 1014.31 1013.88 1013.39 1012.86 1012.32 1011.82 1011.42 1011.15 1011.05 1011.14 1011.42 1011.88 1012.49 1013.21 1013.99 1014.78 1015.56 1016.30 1016.99 1017.64 1018.24 1018.81 1019.36 1019.88 1020.38 1020.84 1021.25 1021.60 1021.88 1022.10 1022.26 1022.39 1022.48 1022.56 1022.63
1014.61 1014.85 1014.99 1015.04 1014.98 1014.83 1014.60 1014.27 1013.88 1013.42 1012.92 1012.38 1011.83 1011.31 1010.84 1010.47 1010.23 1010.14 1010.22 1010.47 1010.87 1011.41 1012.06 1012.78 1013.55 1014.32 1015.09 1015.84 1016.56 1017.26 1017.93 1018.57 1019.18 1019.75 1020.26 1020.72 1021.12 1021.45 1021.72 1021.94 1022.12 1022.27 1022.41 1022.52
1014.58 1014.79 1014.89 1014.86 1014.71 1014.44 1014.08 1013.64 1013.14 1012.60 1012.04 1011.47 1010.93 1010.43 1009.99 1009.66 1009.44 1009.36 1009.42 1009.63 1009.98 1010.45 1011.03 1011.69 1012.40 1013.16 1013.93 1014.71 1015.48 1016.24 1016.97 1017.67 1018.34 1018.96 1019.52 1020.02 1020.46 1020.84 1021.16 1021.44 1021.68 1021.89 1022.07 1022.22
1014.53 1014.68 1014.71 1014.61 1014.37 1014.01 1013.55 1013.03 1012.45 1011.86 1011.27 1010.71 1010.19 1009.73 1009.35 1009.06 1008.88 1008.81 1008.86 1009.03 1009.32 1009.72 1010.22 1010.81 1011.46 1012.16 1012.91 1013.67 1014.44 1015.22 1015.97 1016.71 1017.40 1018.05 1018.64 1019.17 1019.65 1020.07 1020.44 1020.77 1021.06 1021.32 1021.55 1021.73
1014.40 1014.48 1014.43 1014.24 1013.93 1013.49 1012.98 1012.40 1011.80 1011.20 1010.63 1010.10 1009.64 1009.24 1008.92 1008.69 1008.55 1008.50 1008.55 1008.69 1008.93 1009.26 1009.67 1010.17 1010.74 1011.37 1012.04 1012.76 1013.49 1014.24 1014.99 1015.71 1016.41 1017.07 1017.68 1018.24 1018.75 1019.20 1019.61 1019.98 1020.31 1020.61 1020.86 1021.08
1014.15 1014.14 1014.01 1013.74 1013.36 1012.88 1012.34 1011.75 1011.16 1010.60 1010.08 1009.62 1009.23 1008.91 1008.67 1008.51 1008.42 1008.40 1008.45 1008.56 1008.75 1009.01 1009.34 1009.74 1010.20 1010.73 1011.32 1011.95 1012.62 1013.31 1014.02 1014.72 1015.41 1016.06 1016.68 1017.26 1017.80 1018.29 1018.73 1019.13 1019.49 1019.80 1020.07 1020.30
1013.77 1013.67 1013.45 1013.12 1012.69 1012.18 1011.63 1011.07 1010.53 1010.02 1009.58 1009.20 1008.91 1008.68 1008.53 1008.43 1008.39 1008.40 1008.45 1008.54 1008.68 1008.86 1009.10 1009.40 1009.76 1010.18 1010.66 1011.20 1011.79 1012.42 1013.07 1013.74 1014.41 1015.07 1015.70 1016.30 1016.86 1017.37 1017.84 1018.26 1018.63 1018.95 1019.23 1019.45
1013.31 1013.11 1012.81 1012.43 1011.96 1011.45 1010.92 1010.39 1009.90 1009.47 1009.11 1008.83 1008.62 1008.47 1008.39 1008.35 1008.35 1008.37 1008.42 1008.48 1008.57 1008.68 1008.84 1009.04 1009.30 1009.62 1010.00 1010.45 1010.96 1011.53 1012.14 1012.78 1013.44 1014.11 1014.75 1015.38 1015.96 1016.50 1016.98 1017.41 1017.78 1018.10 1018.36 1018.57
1012.84 1012.57 1012.21 1011.78 1011.29 1010.78 1010.27 1009.79 1009.35 1008.98 1008.68 1008.47 1008.32 1008.23 1008.19 1008.18 1008.19 1008.21 1008.24 1008.27 1008.31 1008.36 1008.44 1008.56 1008.74 1008.97 1009.28 1009.65 1010.10 1010.63 1011.21 1011.84 1012.50 1013.17 1013.85 1014.49 1015.10 1015.66 1016.15 1016.58 1016.94 1017.24 1017.48 1017.67
1012.50 1012.18 1011.77 1011.31 1010.82 1010.31 1009.81 1009.35 1008.94 1008.60 1008.34 1008.14 1008.01 1007.93 1007.89 1007.88 1007.87 1007.87 1007.86 1007.85 1007.84 1007.84 1007.87 1007.93 1008.04 1008.22 1008.47 1008.80 1009.22 1009.71 1010.28 1010.91 1011.58 1012.27 1012.96 1013.63 1014.26 1014.83 1015.33 1015.75 1016.09 1016.37 1016.58 1016.74
1012.42 1012.07 1011.64 1011.17 1010.66 1010.14 1009.64 1009.18 1008.77 1008.42 1008.13 1007.91 1007.75 1007.63 1007.54 1007.47 1007.42 1007.36 1007.30 1007.25 1007.20 1007.16 1007.15 1007.17 1007.26 1007.40 1007.63 1007.94 1008.33 1008.82 1009.38 1010.01 1010.69 1011.39 1012.09 1012.77 1013.40 1013.97 1014.46 1014.87 1015.20 1015.45 1015.64 1015.78
Thickness
5707 5705 5700 5705 5711 5714 5712 5709 5705 5705 5714 5715 5712 5712 5716 5723 5726 5727 5730 5733 5734 5733 5736 5737 5738 5738 5739 5739 5739 5737 5736 5735 5733 5732 5731 5729 5728 5727 5726 5723 5721 5719 5719 5718
5700 5696 5704 5709 5711 5712 5710 5706 5704 5706 5713 5714 5712 5713 5719 5723 5726 5729 5732 5733 5734 5734 5734 5734 5735 5736 5737 5736 5736 5736 5735 5734 5732 5730 5730 5728 5727 5726 5724 5722 5720 5718 5717 5716
5699 5700 5707 5705 5704 5705 5706 5707 5708 5707 5709 5715 5713 5710 5717 5724 5728 5729 5731 5734 5736 5735 5735 5734 5734 5734 5734 5734 5733 5733 5733 5732 5730 5729 5728 5726 5725 5725 5724 5721 5719 5717 5715 5714
5702 5706 5705 5704 5704 5707 5701 5712 5713 5711 5711 5709 5714 5705 5720 5727 5726 5727 5729 5733 5734 5734 5734 5734 5733 5732 5732 5732 5733 5733 5731 5731 5729 5728 5727 5726 5723 5722 5720 5719 5718 5716 5714 5712
5700 5705 5705 5704 5708 5712 5709 5716 5715 5715 5714 5712 5716 5713 5723 5727 5725 5730 5733 5734 5735 5735 5735 5732 5732 5732 5732 5731 5730 5731 5730 5728 5726 5726 5723 5722 5722 5720 5719 5718 5716 5715 5713 5710
5706 5712 5713 5711 5714 5716 5714 5713 5712 5715 5716 5703 5715 5715 5718 5731 5735 5738 5738 5738 5736 5736 5734 5733 5732 5731 5730 5728 5727 5727 5726 5724 5723 5722 5722 5720 5718 5717 5716 5714 5713 5713 5712 5709
5700 5706 5712 5716 5708 5710 5714 5708 5696 5695 5697 5704 5718 5714 5724 5742 5745 5745 5743 5741 5740 5737 5735 5732 5730 5728 5726 5725 5725 5724 5723 5721 5721 5720 5720 5718 5716 5715 5713 5712 5710 5709 5709 5707
5697 5695 5708 5715 5716 5712 5714 5715 5702 5692 5694 5707 5712 5714 5734 5743 5744 5745 5745 5744 5740 5737 5735 5732 5730 5728 5725 5724 5723 5723 5721 5719 5718 5718 5718 5716 5714 5713 5711 5709 5708 5707 5705 5703
5703 5699 5712 5717 5722 5721 5712 5714 5722 5714 5709 5705 5716 5725 5736 5739 5739 5739 5740 5739 5737 5736 5734 5732 5729 5727 5725 5723 5722 5721 5720 5718 5716 5716 5714 5713 5712 5710 5708 5706 5705 5704 5702 5700
5715 5701 5709 5715 5720 5718 5724 5723 5716 5710 5698 5699 5710 5719 5730 5736 5738 5739 5738 5738 5738 5736 5734 5731 5728 5726 5725 5723 5721 5720 5718 5717 5715 5713 5712 5709 5708 5706 5704 5703 5701 5700 5698 5696
5720 5710 5706 5711 5712 5715 5714 5715 5717 5717 5715 5706 5704 5722 5748 5747 5748 5745 5744 5743 5740 5737 5734 5731 5728 5726 5724 5721 5719 5717 5715 5713 5712 5710 5709 5706 5704 5702 5701 5699 5696 5695 5694 5692
5722 5719 5709 5714 5724 5728 5725 5724 5720 5710 5711 5715 5713 5725 5753 5751 5751 5749 5747 5746 5743 5739 5735 5732 5728 5725 5721 5719 5717 5715 5713 5711 5708 5706 5704 5702 5700 5698 5697 5695 5693 5692 5690 5688
5721 5717 5705 5704 5710 5717 5719 5723 5723 5723 5720 5716 5711 5726 5750 5750 5748 5749 5747 5746 5743 5738 5734 5730 5726 5723 5720 5717 5715 5713 5710 5708 5705 5702 5700 5699 5697 5695 5692 5691 5689 5687 5685 5683
5724 5722 5715 5706 5715 5722 5718 5718 5720 5719 5716 5718 5722 5731 5745 5747 5747 5748 5746 5745 5742 5737 5733 5729 5724 5722 5718 5716 5713 5710 5707 5705 5702 5699 5696 5694 5693 5690 5687 5686 5683 5681 5680 5678
5723 5720 5722 5724 5725 5724 5723 5722 5720 5720 5726 5724 5732 5735 5744 5751 5751 5750 5747 5743 5739 5735 5732 5729 5725 5722 5717 5714 5711 5708 5704 5701 5698 5695 5692 5690 5688 5685 5682 5679 5677 5676 5673 5672
5722 5718 5719 5717 5720 5720 5719 5724 5724 5723 5727 5729 5732 5737 5755 5757 5754 5749 5746 5741 5737 5735 5733 5730 5726 5722 5718 5714 5710 5706 5702 5699 5696 5692 5688 5685 5682 5679 5676 5674 5672 5669 5666 5665
5720 5718 5712 5713 5716 5714 5714 5731 5730 5729 5734 5734 5731 5744 5753 5748 5747 5747 5746 5742 5740 5738 5734 5731 5728 5723 5719 5716 5712 5705 5701 5697 5692 5688 5684 5680 5677 5673 5670 5668 5665 5662 5660 5657
5719 5715 5713 5710 5708 5696 5730 5740 5737 5733 5737 5741 5742 5747 5748 5747 5747 5748 5748 5744 5741 5738 5734 5731 5728 5723 5720 5715 5709 5704 5698 5693 5688 5684 5679 5675 5671 5668 5664 5661 5658 5655 5654 5651
5717 5711 5706 5705 5701 5710 5728 5734 5730 5727 5732 5743 5741 5743 5742 5741 5739 5742 5745 5744 5742 5739 5735 5731 5728 5723 5718 5712 5706 5700 5694 5689 5684 5679 5675 5671 5667 5662 5658 5654 5651 5649 5646 5643
5704 5707 5704 5700 5693 5697 5723 5732 5734 5728 5724 5741 5740 5737 5735 5733 5731 5739 5743 5740 5738 5734 5731 5727 5723 5719 5713 5708 5702 5696 5691 5686 5681 5676 5671 5667 5662 5657 5653 5649 5646 5642 5639 5636
5696 5695 5695 5696 5695 5710 5727 5725 5724 5712 5723 5736 5736 5735 5733 5733 5738 5740 5738 5734 5732 5728 5724 5720 5717 5712 5708 5703 5697 5692 5688 5683 5678 5672 5666 5661 5656 5651 5647 5643 5639 5635 5633 5630
5701 5697 5696 5696 5691 5702 5719 5718 5717 5723 5732 5732 5731 5732 5730 5731 5731 5731 5730 5727 5724 5721 5717 5713 5709 5705 5701 5697 5692 5688 5683 5679 5672 5665 5659 5655 5650 5645 5641 5636 5632 5629 5626 5623
5701 5705 5705 5704 5707 5712 5714 5716 5719 5722 5723 5725 5726 5726 5725 5722 5722 5722 5720 5719 5716 5713 5710 5706 5703 5698 5694 5690 5686 5682 5678 5671 5665 5658 5653 5648 5644 5639 5635 5630 5626 5622 5619 5616
5700 5696 5696 5699 5707 5707 5707 5710 5712 5714 5716 5718 5719 5719 5718 5716 5715 5713 5712 5710 5708 5706 5702 5699 5694 5690 5687 5684 5679 5677 5671 5665 5659 5653 5648 5643 5638 5634 5629 5624 5620 5616 5613 5610
5692 5688 5690 5693 5701 5700 5702 5703 5704 5706 5708 5709 5710 5710 5709 5708 5706 5705 5704 5702 5700 5697 5694 5691 5688 5684 5681 5677 5672 5668 5664 5658 5653 5648 5642 5637 5632 5628 5622 5618 5613 5610 5606 5602
5685 5683 5684 5689 5696 5695 5696 5698 5697 5696 5697 5699 5699 5698 5699 5698 5697 5696 5695 5693 5691 5689 5687 5683 5680 5676 5674 5670 5666 5661 5656 5651 5647 5642 5637 5631 5626 5620 5615 5611 5606 5600 5595 5591